Quincy, IL

7:25 AM CST on November 17, 2019 (GMT -0600)
Quincy Regional-Baldwin

Weather History for KUIN - September, 2019

Change the Weather History Date:

Monday, September 30, 2019

  Actual Average Record
Temperature  
Mean Temperature 80 °F 60 °F  
Max Temperature 88 °F 71 °F 91 °F (1952)
Min Temperature 71 °F 49 °F 35 °F (1916)
Degree Days  
Heating Degree Days 0 6  
Month to date heating degree days 83  
Since 1 July heating degree days 87  
Cooling Degree Days 14 2  
Month to date cooling degree days 123  
Year to date cooling degree days 1076  
Growing Degree Days 30 (Base 50)    
Moisture  
Dew Point 67 °F    
Average Humidity 69    
Maximum Humidity 84    
Minimum Humidity 49    
Precipitation  
Precipitation 0.00 in 0.10 in 1.28 in (1962)
Month to date precipitation 3.30  
Year to date precipitation 29.05  
Sea Level Pressure  
Sea Level Pressure 29.98 in    
Wind  
Wind Speed 9 mph ()    
Max Wind Speed 18 mph    
Max Gust Speed 29 mph    
Visibility 10.0 miles    
Events      
T = Trace of Precipitation, MM = Missing Value Source: Averaged Metar Reports

Daily Weather History Graph

Daily Weather History Graph

Search for Another Location

Airport or City:

Astronomy

Sep. 30, 2019 Rise Set
Actual Time 6:59 AM CDT 6:49 PM CDT
Civil Twilight 6:32 AM CDT 7:15 PM CDT
Nautical Twilight 6:01 AM CDT 7:47 PM CDT
Astronomical Twilight 5:29 AM CDT 8:18 PM CDT
Moon 9:04 AM CDT (9/30) 8:25 PM CDT (9/30)
Length of Visible Light 12h 43m
Length of Day
11h 49m
Waxing Crescent, 6% of the Moon is Illuminated
Sep 30
Waxing Crescent
Oct 5
First Quarter
Oct 13
Full
Oct 21
Last Quarter
Oct 27
New

Hourly Weather History & Observations

Time (CDT) Temp. Heat Index Dew Point Humidity Pressure Visibility Wind Dir Wind Speed Gust Speed Precip Events Conditions
12:54 AM 73.9 °F - 68.0 °F 82% 30.00 in 10.0 mi South 8.1 mph - N/A   Clear
1:54 AM 72.0 °F - 66.9 °F 84% 30.01 in 10.0 mi South 6.9 mph - N/A   Clear
2:54 AM 72.0 °F - 66.0 °F 81% 30.00 in 10.0 mi South 8.1 mph - N/A   Clear
3:54 AM 72.0 °F - 66.0 °F 81% 29.99 in 10.0 mi SSW 9.2 mph - N/A   Clear
4:54 AM 72.0 °F - 66.0 °F 81% 30.00 in 10.0 mi South 6.9 mph - N/A   Clear
5:54 AM 71.1 °F - 66.0 °F 84% 30.01 in 10.0 mi South 6.9 mph - N/A   Clear
6:54 AM 71.1 °F - 66.0 °F 84% 30.02 in 10.0 mi South 8.1 mph - N/A   Partly Cloudy
7:54 AM 72.0 °F - 66.0 °F 81% 30.02 in 10.0 mi South 8.1 mph - N/A   Partly Cloudy
8:54 AM 75.0 °F - 66.9 °F 76% 30.03 in 10.0 mi South 9.2 mph - N/A   Clear
9:54 AM 79.0 °F - 66.9 °F 66% 30.02 in 10.0 mi SSW 13.8 mph - N/A   Clear
10:54 AM 82.9 °F 85.8 °F 68.0 °F 60% 30.02 in 10.0 mi SSW 13.8 mph - N/A   Clear
11:54 AM 86.0 °F 89.4 °F 68.0 °F 55% 30.01 in 10.0 mi SSW 13.8 mph - N/A   Clear
12:54 PM 86.0 °F 88.8 °F 66.9 °F 53% 29.99 in 10.0 mi SSW 16.1 mph 20.7 mph N/A   Clear
1:54 PM 87.1 °F 90.6 °F 68.0 °F 53% 29.96 in 10.0 mi SSW 15.0 mph 24.2 mph N/A   Clear
2:54 PM 88.0 °F 90.7 °F 66.9 °F 49% 29.95 in 10.0 mi SSW 17.3 mph 25.3 mph N/A   Clear
3:54 PM 87.1 °F 89.9 °F 66.9 °F 51% 29.94 in 10.0 mi SSW 18.4 mph 28.8 mph N/A   Clear
4:54 PM 87.1 °F 89.9 °F 66.9 °F 51% 29.93 in 10.0 mi South 17.3 mph 26.5 mph N/A   Clear
5:54 PM 84.0 °F 86.3 °F 66.0 °F 55% 29.93 in 10.0 mi SSW 10.4 mph - N/A   Clear
6:54 PM 80.1 °F 82.3 °F 66.9 °F 64% 29.93 in 10.0 mi South 5.8 mph - N/A   Clear
7:54 PM 77.0 °F - 66.9 °F 71% 29.94 in 10.0 mi South 6.9 mph - N/A   Clear
8:54 PM 75.9 °F - 66.0 °F 71% 29.94 in 10.0 mi South 8.1 mph - N/A   Clear
9:54 PM 75.0 °F - 66.0 °F 73% 29.94 in 10.0 mi South 5.8 mph - N/A   Clear
10:54 PM 73.9 °F - 66.0 °F 76% 29.93 in 10.0 mi South 6.9 mph - N/A   Clear
11:54 PM 73.0 °F - 66.0 °F 79% 29.93 in 10.0 mi South 6.9 mph - N/A   Clear